Location: ??????
(56.0120°N, 39.1740°E)
Time: 05:56:54
(UTC+00:00)

Cosmos 1300 Rocket - Pass Details

Date: 14 April 2026
Orbit: 596 x 618 km, 82.5° (Epoch: 10 May)

Event Time Altitude Azimuth Distance (km) Brightness Sun altitude
Exits shadow 19:42:36 55° 195° (SSW) 724 3.6 -21.1°
Maximum altitude 19:43:31 88° 277° (W) 606 3.4 -21.1°
Drops below altitude 10° 19:47:50 10° 12° (NNE) 1,950 6.8 -21.4°
Sets 19:50:04 0° 13° (NNE) 2,859 7.8 -21.5°
